Regional Weather Roundup
Issued by NWS Little Rock, AR

Home | Current Version | Previous Version | Graphics & Text | Print | Product List | Glossary On
Versions: 1 2 3 4 5 6 7 8 9 10 11 12 13 14 15 16 17 18 19 20 21 22 23 24 25 26 27 28 29 30 31 32 33 34 35 36 37 38 39 40 41 42 43 44 45 46 47 48 49 50
000
ASUS44 KLZK 240505
RWRLZK

WEATHER ROUNDUP FOR ARKANSAS
NATIONAL WEATHER SERVICE LITTLE ROCK AR
1200 AM CDT THU JUL 24 2014

NOTE: "FAIR" INDICATES FEW OR NO CLOUDS BELOW 12,000 FEET WITH NO
SIGNIFICANT WEATHER AND/OR OBSTRUCTIONS TO VISIBILITY.

ARZ001-003-010-029-240600-
NORTHWEST ARKANSAS

CITY           SKY/WX    TMP DP  RH WIND       PRES   REMARKS
FAYETTEVILLE   CLEAR     66  66 100 CALM      30.09S
FORT SMITH     CLEAR     72  69  90 NW3       30.04F
BENTONVILLE    CLEAR     70  64  83 W3        30.11S
ROGERS         CLEAR     70  66  87 W5        30.11S
SILOAM SPGS    CLEAR     68  61  77 NW5       30.11S
HIGHFILL       CLEAR     69  67  93 NW3       30.09F
$$

ARZ004-005-016-240600-
NORTH CENTRAL ARKANSAS

CITY           SKY/WX    TMP DP  RH WIND       PRES   REMARKS
BATESVILLE     PTCLDY    66  66 100 CALM      30.03F
FLIPPIN        MOCLDY    70  68  94 CALM      30.06S
MTN HOME       CLEAR     68  68 100 CALM      30.05F
$$

ARZ040-041-240600-
WEST CENTRAL ARKANSAS

CITY           SKY/WX    TMP DP  RH WIND       PRES   REMARKS
MENA           PTCLDY    70  68  94 CALM      30.04S
MOUNT IDA      PTCLDY    68  67  96 CALM      30.01R
$$

ARZ009-017-025-026-028-240600-
NORTHEAST ARKANSAS

CITY           SKY/WX    TMP DP  RH WIND       PRES   REMARKS
CORNING        LGT RAIN  75  73  94 NE8       30.04F
JONESBORO      CLOUDY    72  68  87 NE3       30.03F
NEWPORT        MOCLDY    71  70  97 NE6       30.04S
WALNUT RIDGE   MOCLDY    72  68  88 E3        30.03S
BLYTHEVILLE    CLEAR     71  70  96 N7        30.02F
$$

ARZ022-023-033-042-044-240600-
CENTRAL ARKANSAS

CITY           SKY/WX    TMP DP  RH WIND       PRES   REMARKS
LITTLE ROCK    MOCLDY    72  68  87 NW7       30.00S
N LITTLE ROCK  MOCLDY    70  69  99 NW9       30.00S
HOT SPRINGS    PTCLDY    70  68  93 CALM      30.01S
RUSSELLVILLE   MOCLDY    71  69  93 NW5       30.02S
CLINTON        FAIR      68  68 100 CALM      30.04R FOG
$$

ARZ036-240600-
EAST ARKANSAS

CITY           SKY/WX    TMP DP  RH WIND       PRES   REMARKS
WEST MEMPHIS   PTCLDY    69  69 100 N3        30.01F
$$

ARZ050-053-066-070-073-240600-
SOUTHWEST ARKANSAS

CITY           SKY/WX    TMP DP  RH WIND       PRES   REMARKS
ARKADELPHIA    MOCLDY    70  70 100 CALM      30.00S
CAMDEN         CLOUDY    68  66  94 CALM      29.99S FOG
TEXARKANA      CLOUDY    69  69 100 E5        30.02R
EL DORADO      CLOUDY    69  68  96 NE6       30.00R
$$

ARZ056-057-069-240600-
SOUTHEAST ARKANSAS

CITY           SKY/WX    TMP DP  RH WIND       PRES   REMARKS
PINE BLUFF     PTCLDY    70  68  93 N5        29.99S
STUTTGART      MOCLDY    72  68  88 NE7       30.00F
MONTICELLO     CLOUDY    71  68  90 CALM      29.99F

$$




USA.gov is the U.S. government's official web portal to all federal, state and local government web resources and services.